Hourly Data Report for June 12, 2021

BORDEN AWOS
ONTARIO
Current Station Operator: DND

44°16'20.000" N
79°54'42.000" W
222.50 m
611B002
71534
YBN

Download Data

Hourly Data (June 2021)
Hourly Data Report for June 12, 2021
TIME
LST
Temp Definition
°C
Dew Point Definition
°C
Rel Hum Definition
%
Precip. Amount Definition
mm

Wind Dir Definition
10's deg

Wind Spd Definition
km/h
Visibility Definition
km
Stn Press Definition
kPa
Hmdx Definition


Wind Chill Definition


Weather Definition


00:00 12.5 11.2 92   27 4 14.5 98.64     LegendNANA
01:00 11.5 10.4 93     0 14.5 98.61     LegendNANA
02:00 12.3 11.1 92     0 14.5 98.58     LegendNANA
03:00 13.3 11.9 91   25 6 14.5 98.59     LegendNANA
04:00 12.1 10.7 91     0 14.5 98.58     LegendNANA
05:00 11.5 10.4 93     0 14.5 98.63     LegendNANA
06:00 14.2 12.6 90     0 14.5 98.62     LegendNANA
07:00 16.8 13.5 81   4 7 14.5 98.70     LegendNANA
08:00 18.6 13.6 73     0 14.5 98.70     LegendNANA
09:00 20.9 13.0 61   12 6 14.5 98.69     LegendNANA
10:00 22.8 11.2 48   10 13 14.5 98.62 25   LegendNANA
11:00 24.1 11.8 46   15 4 14.5 98.56 26   LegendNANA
12:00 25.9 11.7 41   12 9 14.5 98.60 28   LegendNANA
13:00 25.2 10.8 40   6 9 14.5 98.57 27   LegendNANA
14:00 25.6 11.5 41   15 13 14.5 98.53 28   LegendNANA
15:00 25.8 11.6 41   20 9 14.5 98.49 28   LegendNANA
16:00 26.4 11.7 40   18 9 14.5 98.44 29   LegendNANA
17:00 26.7 12.4 41   21 9 14.5 98.43 29   LegendNANA
18:00 25.3 12.1 44   17 11 14.5 98.42 28   LegendNANA
19:00 24.4 12.3 47   21 7 14.5 98.41 27   LegendNANA
20:00 22.6 13.1 55   26 4 14.5 98.45 25   LegendNANA
21:00 19.5 12.1 62   18 4 14.5 98.48     LegendNANA
22:00 17.3 12.1 72     0 14.5 98.49     LegendNANA
23:00 16.7 11.9 73     0 14.5 98.49     LegendNANA

Notes on Data Quality.

Legend

  • E = Estimated
  • M = Missing
  • NA = Not Available*
  • [empty] = Indicates an unobserved value
Date modified: